Regional Weather Roundup
Issued by NWS

Home | Current Version | Previous Version | Text Only | Print | Product List | Glossary Off
Versions: 1 2 3 4 5 6 7 8 9 10 11 12 13 14 15 16 17 18 19 20 21 22 23 24 25 26 27 28 29 30 31 32 33 34 35 36 37 38 39 40 41 42 43 44 45 46 47 48 49

000
ASUS45 KBOI 021310
RWRID
WEATHER ROUNDUP FOR IDAHO
NATIONAL WEATHER SERVICE BOISE ID
600 AM MST MON MAR 02 2015

NOTE: "FAIR" INDICATES FEW OR NO CLOUDS BELOW 12000 FEET
WITH NO SIGNIFICANT WEATHER AND/OR OBSTRUCTIONS TO VISIBILITY

IDZ012-014-021400-
SOUTHWEST IDAHO


CITY           SKY/WX    TMP DP  RH WIND       PRES   REMARKS
BOISE          CLEAR     32  20  61 SE12      29.85S WCI  23
CALDWELL       CLEAR     21  14  73 E3        29.88F
MOUNTAIN HOME  CLEAR     22  13  70 E7        29.85F WCI  13
$$

IDZ016-017-021400-
SOUTHCENTRAL IDAHO


CITY           SKY/WX    TMP DP  RH WIND       PRES   REMARKS
BURLEY         CLEAR     16  11  80 NE3       29.82F
JEROME         CLEAR     25   7  46 NE20      29.82F WCI  11
TWIN FALLS     CLEAR     20  13  74 CALM      29.82F
$$

IDZ019>023-021400-
SOUTHEAST IDAHO


CITY           SKY/WX    TMP DP  RH WIND       PRES   REMARKS
IDAHO FALLS    PTCLDY    15   6  67 N9        29.88F WCI   3
POCATELLO      CLEAR     16  11  80 CALM      29.86F
REXBURG        CLEAR     13   8  81 E5        29.87F WCI   5
$$

IDZ006-010-011-018-031-032-021400-
CENTRAL IDAHO MOUNTAINS


CITY           SKY/WX    TMP DP  RH WIND       PRES   REMARKS
MCCALL         PTCLDY    17  12  80 CALM      29.82F
HAILEY         CLEAR     21  14  73 NW10      29.87F WCI  10
STANLEY          N/A      5  -1  76 CALM      29.85F
SALMON         CLEAR     16  10  79 CALM      29.90F
CHALLIS        CLEAR     16   9  74 CALM      29.88F
$$

IDZ002-004-006-007-026-021400-
NORTHERN IDAHO


CITY           SKY/WX    TMP DP  RH WIND       PRES   REMARKS
LEWISTON       PTCLDY    31  22  69 CALM      29.90F
LOWELL           N/A     25  20  81 NW3       29.98S
COEUR D`ALENE  MOCLDY    28  16  59 E6        29.88F WCI  22
MULLAN PASS    PTCLDY    22   4  46 S5        29.77F WCI  16
$$


USA.gov is the U.S. government's official web portal to all federal, state and local government web resources and services.